Location: Bernay
(48.6766°N, 2.9386°E)
Time: 20:32:17
(UTC+00:00)

USA 238 - Pass Details

Date: 12 January 2026
Orbit: 883 x 1328 km, 63.4° (Epoch: 10 January)

Event Time Altitude Azimuth Distance (km) Brightness Sun altitude
Rises 16:46:24 0° 315° (NW) 3,865 6.9 -5.2°
Reaches altitude 10° 16:49:08 10° 322° (NW) 2,974 6.2 -5.6°
Maximum altitude 16:55:54 42° 33° (NNE) 1,632 4.3 -6.6°
Drops below altitude 10° 17:03:18 10° 103° (ESE) 3,256 5.8 -7.7°
Sets 17:06:25 0° 110° (ESE) 4,267 6.4 -8.2°
